Regional Weather Roundup
Issued by NWS

Home | Current Version | Previous Version | Text Only | Print | Product List | Glossary On
Versions: 1 2 3 4 5 6 7 8 9 10 11 12 13 14 15 16 17 18 19
000
ASCA42 TJSJ 261810
RWRPR
PUERTO RICO/U.S. VIRGIN ISLANDS HOURLY WEATHER ROUNDUP
NATIONAL WEATHER SERVICE SAN JUAN PR
200 PM AST THU APR 26 2018

PRZ001>002-007>008-010-261900-
PUERTO RICO

CITY           SKY/WX    TMP DP  RH WIND       PRES   REMARKS
SAN JUAN LMM   MOSUNNY   84  72  65 SE12      29.98F
AGUADILLA      CLOUDY    81  73  78 NE8       30.00F
CEIBA          LGT RAIN  79  77  94 E9        30.02  FOG
$$

VIZ001>002-261900-
U.S. VIRGIN ISLANDS

CITY           SKY/WX    TMP DP  RH WIND       PRES   REMARKS
CHARLOTTE AMA  PTSUNNY   84  73  70 E16       30.00  HX  91
$$

HOURLY WEATHER ROUNDUP FOR THE NEWS MEDIA

CITY           SKY/WX    TMP DP  RH WIND       PRES   REMARKS
ORLANDO        PTSUNNY   79  58  48 SW8G16    29.91F
NEW YORK       FAIR      65  42  43 W20       29.75R
NEWARK         FAIR      67  41  38 W13G25    29.74S
CHICAGO        PTSUNNY   62  28  27 VRB3      29.93F
HARTFORD       PTSUNNY   67  51  56 W14G26    29.62R
BOSTON         FAIR      65  49  56 W16       29.60R
DALLAS         FAIR      66  45  46 NW9       30.02F
PHILADELPHIA   FAIR      64  42  44 W13       29.82R
LOS ANGELES    FAIR      62  51  67 W5        30.05S
WASHINGTON DC  FAIR      66  38  35 NW10      29.86F



USA.gov is the U.S. government's official web portal to all federal, state and local government web resources and services.